EDT,Max TemperatureF,Mean TemperatureF,Min TemperatureF,Max Dew PointF,MeanDew PointF,Min DewpointF,Max Humidity, Mean Humidity, Min Humidity, Max Sea Level PressureIn, Mean Sea Level PressureIn, Min Sea Level PressureIn, Max VisibilityMiles, Mean VisibilityMiles, Min VisibilityMiles, Max Wind SpeedMPH, Mean Wind SpeedMPH, Max Gust SpeedMPH,PrecipitationIn, CloudCover, Events, WindDirDegrees
2012-10-1,59,55,50,54,51,50,100,89,77,29.87,29.67,29.51,20,13,10,8,5,,0.00,7,Rain,263
2012-10-2,64,56,48,57,52,48,100,95,68,30.06,29.97,29.89,20,3,0,10,4,,0.00,5,Fog-Rain,240
2012-10-3,66,56,46,57,52,46,100,88,64,30.15,30.11,30.07,20,10,0,10,4,20,0.00,5,Fog,54
2012-10-4,60,56,51,57,54,50,100,96,77,30.15,30.09,29.98,15,4,0,7,4,,0.00,8,Fog,53
2012-10-5,68,60,51,61,56,50,100,91,72,29.96,29.90,29.82,15,9,0,12,4,21,0.00,5,Fog-Rain,230
2012-10-6,57,50,44,48,46,41,100,86,72,29.88,29.78,29.73,20,14,5,12,4,22,0.00,6,Rain,247
2012-10-7,48,42,37,41,35,30,100,75,50,30.08,30.03,29.89,,,,12,5,21,0.00,5,,251
2012-10-8,53,42,30,36,32,27,100,75,41,30.30,30.22,30.09,,,,10,2,,0.00,3,,207
2012-10-9,59,46,32,45,38,32,100,76,44,30.31,30.21,30.06,20,20,20,10,4,,0.00,4,,103
2012-10-10,55,48,42,52,46,41,100,92,77,30.04,29.82,29.67,20,12,3,14,7,26,0.00,7,Rain,176
2012-10-11,50,44,37,41,35,28,100,76,43,30.03,29.94,29.76,15,15,15,14,8,28,0.00,6,Rain,240
2012-10-12,44,38,32,41,29,21,100,68,42,30.40,30.13,29.88,15,15,15,14,9,25,0.00,5,Rain,285
2012-10-13,50,37,24,34,27,23,93,67,43,30.43,30.35,30.19,20,20,20,14,5,22,0.00,5,Rain,225
2012-10-14,42,40,37,43,39,36,100,97,87,30.19,29.97,29.75,15,4,1,9,7,,0.00,8,Rain,57
2012-10-15,62,52,42,57,47,41,100,88,59,29.73,29.59,29.53,15,3,1,17,7,28,0.00,7,Rain,137
2012-10-16,48,42,33,41,34,28,93,72,57,29.88,29.74,29.59,,,,14,8,23,0.00,5,Rain,270
2012-10-17,53,42,30,41,35,28,100,77,54,29.99,29.95,29.88,,,,6,4,,0.00,4,,220
2012-10-18,66,55,44,46,42,39,87,67,43,29.99,29.94,29.89,20,17,15,13,6,,0.00,5,Rain,63
2012-10-19,53,50,46,54,48,41,100,94,76,29.97,29.87,29.72,15,4,1,15,7,18,0.00,8,Rain,48
2012-10-20,60,53,46,55,51,41,100,91,63,29.72,29.65,29.60,20,3,0,13,6,21,0.00,6,Fog-Rain-Thunderstorm,272
2012-10-21,51,46,42,46,43,41,93,81,67,29.88,29.76,29.67,20,18,15,15,9,28,0.00,7,Rain,243
2012-10-22,59,50,41,43,41,37,87,75,51,30.07,29.97,29.89,,,,15,8,20,0.00,3,,261
2012-10-23,55,44,33,41,38,34,100,78,54,30.19,30.14,30.07,,,,9,3,,0.00,3,,261
2012-10-24,50,40,30,36,31,28,93,68,47,30.28,30.23,30.19,,,,8,4,,0.00,4,,48
2012-10-25,50,44,37,37,35,32,81,68,58,30.27,30.20,30.12,20,18,15,12,6,20,0.00,5,,48
2012-10-26,68,55,42,55,46,36,100,77,60,30.16,30.11,30.06,20,13,10,7,4,,0.00,2,,57
2012-10-27,57,54,50,52,50,48,100,90,77,30.11,30.06,30.01,20,9,3,10,5,18,0.00,7,Fog,42
2012-10-28,55,52,50,48,46,45,88,79,67,30.09,30.03,29.98,20,20,20,12,6,22,0.00,8,,54
2012-10-29,59,54,48,52,48,45,88,81,72,29.97,29.78,29.51,,,,21,13,41,0.00,7,Rain,50
2012-10-30,69,61,53,57,53,50,100,85,56,29.57,29.52,29.47,15,14,10,23,17,41,0.00,6,Rain,55
2012-10-31,57,50,44,57,50,43,100,97,93,29.52,29.47,29.42,15,7,0,10,7,21,0.00,8,Fog-Rain,72